Overview Statistics Trail Chart Weather Telemetry Raw packets
 

This is the latest recevied weather packets stored in our database for station/object HA2SKA-1. If no packets are shown the sender has not sent any weather packets the latest 10 day(s).

<< 19 20 21 22 23 24 25 >>
Time Temp. Humidity Pressure Rain* Wind** Luminosity Snow
1788200426 27.22° C 45% 1015.8 hPa - - - -
1788199506 27.78° C 45% 1015.5 hPa - - - -
1788198606 27.78° C 44% 1015.4 hPa - - - -
1788197706 27.78° C 45% 1015.3 hPa - - - -
1788196805 28.33° C 45% 1015.5 hPa - - - -
1788195905 28.89° C 44% 1015.7 hPa - - - -
1788195005 30° C 43% 1015.7 hPa - - - -
1788194105 30.56° C 45% 1015.7 hPa - - - -
1788193205 31.11° C 44% 1015.9 hPa - - - -
1788192305 31.67° C 43% 1015.8 hPa - - - -
1788191404 31.67° C 43% 1015.9 hPa - - - -
1788190504 31.67° C 46% 1015.8 hPa - - - -
1788189604 32.22° C 45% 1015.9 hPa - - - -
1788188704 32.78° C 45% 1015.9 hPa - - - -
1788187804 32.78° C 45% 1016 hPa - - - -
1788186012 32.78° C 46% 1016.1 hPa - - - -
1788185112 32.78° C 47% 1016 hPa - - - -
1788184212 32.78° C 46% 1016.1 hPa - - - -
1788183312 32.78° C 48% 1015.9 hPa - - - -
1788182427 32.22° C 49% 1016.1 hPa - - - -
1788181512 33.89° C 39% 1016.2 hPa - - - -
1788180612 35.56° C 38% 1016.1 hPa - - - -
1788179712 33.89° C 40% 1016.3 hPa - - - -
1788178812 33.89° C 39% 1016.3 hPa - - - -
1788177912 35° C 38% 1016.4 hPa - - - -

* Rain since midnight (hover to see other rain measurements)
** Current wind speed in m/s (hover to see current wind gust speed)